Regional Weather Roundup
Issued by NWS

Home | Current Version | Previous Version | Graphics & Text | Print | Product List | Glossary On
Versions: 1 2 3 4 5 6 7 8 9 10 11 12 13 14 15 16 17 18 19 20 21 22 23 24 25 26 27 28 29 30 31 32 33 34 35 36 37 38 39 40 41 42 43 44 45 46 47 48 49 50
000
ASUS45 KABQ 120001
RWRNM
WEATHER ROUNDUP FOR NEW MEXICO
NATIONAL WEATHER SERVICE ALBUQUERQUE NM
600 PM MDT FRI JUL 11 2014

NOTE: "FAIR" MEANS FEW OR NO CLOUDS BELOW 12,000 FEET AGL WITH NO
       SIGNIFICANT WEATHER OR OBSTRUCTIONS TO VISION.

      THIS PRODUCT IS RELEASED AS TWO VERSIONS.  ONE VERSION NEAR
      THE TOP OF THE HOUR CONTAINING PRELIMINARY DATA FROM ALBUQUERQUE
      AND OTHER STATIONS.  A FINAL VERSION WITH ADDITIONAL DATA IS
      ISSUED ABOUT 10 MINUTES AFTER THE HOUR.

NMZ501-503-504-510>518-120100-
NORTHWEST PLATEAU/NORTHCENTRAL MOUNTAINS

CITY           SKY/WX    TMP DP  RH WIND       PRES   REMARKS
FARMINGTON     SUNNY     91  44  19 CALM      30.05F
6HR MIN TEMP:  83; 6HR MAX TEMP:  93;

LOS ALAMOS     LGT RAIN  74  51  44 SE5       30.27R
SANTA FE       CLOUDY    81  48  31 SE6       30.18R
6HR MIN TEMP:  78; 6HR MAX TEMP:  90;

TAOS             N/A    N/A N/A N/A MISG        N/A
ANGEL FIRE     CLOUDY    58  55  89 SE3       30.40R

$$
NMZ402-403-502-505>509-120100-
WESTCENTRAL MOUNTAINS/SOUTHWEST MOUNTAINS

CITY           SKY/WX    TMP DP  RH WIND       PRES   REMARKS
GALLUP         LGT RAIN  65  59  81 S20G26    30.26R
6HR MIN TEMP:  65; 6HR MAX TEMP:  90; 6HR PCP:  0.01;

GRANTS         CLOUDY    75  56  50 SW16      30.22S

$$
NMZ407-409-411-412-120100-
SOUTHERN DESERTS

CITY           SKY/WX    TMP DP  RH WIND       PRES   REMARKS
LORDSBURG      FAIR      86  55  35 S14       30.04R
DEMING         TSTM      71  60  68 N14       30.07S
6HR MIN TEMP:  71; 6HR MAX TEMP:  96; 6HR PCP:  0.25;

LAS CRUCES     PTSUNNY   91  52  26 CALM      30.03R
HOLLOMAN AFB   MOSUNNY   94  52  24 W6        29.97S
T OR C         LGT RAIN  72  62  71 NW18      30.09R
6HR MIN TEMP:  70; 6HR MAX TEMP:  96; 6HR PCP:  0.15;


$$
NMZ519>523-120100-
CENTRAL VALLEYS/CENTRAL HIGHLANDS

CITY           SKY/WX    TMP DP  RH WIND       PRES   REMARKS
ALBUQUERQUE    PTSUNNY   89  49  25 SE6       30.06F
6HR MIN TEMP:  84; 6HR MAX TEMP:  93;

DOUBLE EAGLE   PTSUNNY   88  48  25 SW5       30.12S THUNDER
MORIARTY ARPT  FAIR      76  59  55 E5        30.17R
6HR MIN TEMP:  74; 6HR MAX TEMP:  89;

CLINES CORNERS PTSUNNY   79  48  33 S13       30.23R
6HR MIN TEMP:  79; 6HR MAX TEMP:  87;

BELEN          FAIR      92  48  21 W13       30.05S
6HR MIN TEMP:  86; 6HR MAX TEMP:  94;

SOCORRO        FAIR      89  47  24 SW21G26   30.07R
6HR MIN TEMP:  87; 6HR MAX TEMP:  96;


$$
NMZ524>526-539-540-120100-
SOUTHCENTRAL MOUNTAINS

CITY           SKY/WX    TMP DP  RH WIND       PRES   REMARKS
RUIDOSO        NOT AVBL

$$
NMZ527>531-120100-
NORTHEAST HIGHLANDS/NORTHEAST PLAINS

CITY           SKY/WX    TMP DP  RH WIND       PRES   REMARKS
LAS VEGAS      MOSUNNY   82  49  31 S16G25    30.24R
6HR MIN TEMP:  79; 6HR MAX TEMP:  85;

RATON          MOSUNNY   87  46  24 S15       30.16R
6HR MIN TEMP:  83; 6HR MAX TEMP:  91;

CLAYTON        SUNNY     90  44  20 S20G28    30.10S
6HR MIN TEMP:  87; 6HR MAX TEMP:  92;


$$
NMZ532>537-120100-
EASTCENTRAL PLAINS

CITY           SKY/WX    TMP DP  RH WIND       PRES   REMARKS
TUCUMCARI      SUNNY     92  49  22 S16G24    30.03F
6HR MIN TEMP:  89; 6HR MAX TEMP:  95;

CANNON AFB     SUNNY     86  56  36 SE13      30.09F
6HR MIN TEMP:  82; 6HR MAX TEMP:  87; 6HR PCP: TRACE;

CLOVIS AIRPORT NOT AVBL

$$
NMZ028-029-538-120100-
SOUTHEAST PLAINS

CITY           SKY/WX    TMP DP  RH WIND       PRES   REMARKS
ROSWELL        SUNNY     92  51  24 SE14G23   30.02F
6HR MIN TEMP:  85; 6HR MAX TEMP:  93;

ARTESIA        SUNNY     90  52  27 SE16G22   30.01S
CARLSBAD       SUNNY     91  53  27 SE16      29.99F
6HR MIN TEMP:  83; 6HR MAX TEMP:  93;

HOBBS          MOSUNNY   84  57  39 SE20G28   30.07S


$$


USA.gov is the U.S. government's official web portal to all federal, state and local government web resources and services.